CAPE
9 8 9 9 13 16 17 14 13 8 3 6 15 23 31 34 34 39 34 22 34 44 53 57 57 59 42 48 48 54 50 60 66 61 112 132 300 121 56 62 48 123 93
10 6 12 11 14 13 16 15 14 16 3 0 1 8 24 30 58 28 33 30 38 52 51 53 55 57 162 133 36 164 129 133 70 163 191 176 314 381 108 246 168 59 64
10 9 8 15 21 24 26 28 29 25 19 0 2 7 23 17 17 31 24 38 47 48 51 69 126 101 135 47 83 72 76 62 95 126 134 199 171 47 132 194 179 302 97
12 8 13 21 21 25 27 42 18 35 33 5 0 4 3 0 0 0 3 26 43 60 88 145 133 100 46 44 8 96 88 64 146 145 163 143 136 274 219 228 134 94 64
11 7 15 15 17 23 24 35 26 25 38 14 0 1 3 0 0 0 0 51 63 106 87 57 106 59 46 0 0 9 71 55 55 88 119 89 112 141 394 175 178 79 72
11 13 6 17 19 16 15 25 35 25 22 15 0 5 9 0 0 0 0 52 67 110 76 64 34 72 6 0 0 0 62 164 125 215 223 147 209 338 189 239 175 79 45
11 16 13 12 11 2 12 5 10 29 34 15 1 6 22 0 0 0 0 11 66 48 58 47 22 9 4 0 0 0 27 124 124 102 164 150 166 198 150 50 104 78 56
7 10 7 1 0 0 2 0 8 24 18 2 0 9 14 0 0 0 0 51 56 49 63 52 21 15 0 0 0 5 35 76 121 14 26 63 87 51 31 56 86 101 62
10 12 0 0 0 0 0 0 0 2 1 0 0 4 4 27 0 0 0 50 35 27 62 45 14 5 0 0 0 16 44 38 2 1 0 0 0 0 3 3 26 49 41
18 0 0 0 0 0 0 0 0 6 0 3 0 2 1 14 0 0 0 0 20 0 167 27 0 0 0 0 0 18 44 57 3 4 61 53 38 21 16 17 49 57 62
3 0 0 0 0 0 3 6 2 7 4 17 1 15 42 40 17 0 0 0 0 0 20 58 75 0 0 0 0 8 51 5 12 65 57 48 62 36 35 21 48 76 35
0 2 4 5 7 3 8 30 39 46 60 74 61 87 55 73 6 0 0 0 1 25 73 95 56 0 0 0 0 16 0 0 45 44 28 27 27 18 17 25 24 52 52
3 9 13 13 15 20 25 34 43 100 63 49 39 43 50 48 78 0 0 0 0 3 73 16 0 0 2 0 7 9 0 50 41 13 17 18 26 8 9 14 24 41 26
8 18 20 8 18 14 27 38 30 25 23 21 13 17 16 36 52 43 26 39 7 16 58 43 15 6 7 25 14 40 64 27 6 18 10 12 9 8 8 20 37 31 25
19 22 11 10 8 15 39 26 11 13 0 0 0 1 4 13 17 0 0 8 14 1 0 31 102 118 71 45 24 44 35 6 8 10 11 10 10 11 9 17 16 9 17
16 13 10 7 17 23 29 38 0 0 0 0 0 0 0 0 0 0 0 0 0 0 1 106 154 97 82 39 42 44 41 1 6 7 11 9 7 7 7 5 18 25 35
20 29 11 0 14 34 31 32 33 5 0 0 0 0 0 0 0 0 0 0 0 0 106 108 104 79 38 44 60 46 21 6 6 6 6 6 5 9 8 7 13 18 20
17 0 2 19 31 31 26 11 26 29 35 45 4 0 0 0 0 0 0 1 99 31 63 90 46 46 47 61 65 18 2 3 4 5 4 6 5 5 9 14 26 34 26
21 16 27 27 30 13 1 23 22 25 38 41 37 0 0 0 0 0 0 57 69 57 60 47 40 30 31 53 34 25 4 3 1 5 5 5 9 12 9 10 12 1 2
11 0 0 4 19 34 25 19 32 39 41 32 31 8 0 0 41 45 43 41 41 54 52 38 26 26 38 27 19 20 3 4 7 7 4 5 7 8 9 9 7 8 5
19 20 1 0 16 24 19 19 37 37 22 15 21 0 0 1 49 47 39 32 28 23 33 22 21 24 25 28 16 2 1 3 6 6 5 3 5 3 2 4 8 10 15
17 35 36 36 23 26 6 26 34 12 0 0 2 5 0 34 35 38 44 11 13 21 41 22 16 29 18 22 8 0 1 3 4 3 2 2 4 3 2 5 8 12 13
25 31 36 30 28 1 25 28 5 0 0 0 1 4 14 9 34 20 9 9 28 15 25 15 26 16 23 7 0 2 3 3 2 3 3 4 6 5 24 33 29 24 42
14 22 15 28 24 14 14 0 0 0 0 0 0 2 10 3 27 23 14 20 31 5 23 31 35 19 17 0 1 1 5 3 4 2 5 6 6 2 5 76 74 75 78
13 15 29 34 35 9 0 0 0 0 0 0 0 0 2 8 12 21 27 32 4 17 30 32 21 16 0 0 1 0 0 0 1 0 3 5 9 104 89 82 69 43 25
17 34 39 20 0 0 0 0 0 0 0 0 0 0 1 12 11 11 11 13 15 15 25 22 18 3 0 0 0 0 0 0 0 0 0 0 152 73 37 52 31 1 8
CIN
-0 -0 -0 -0 -0 -0 -0 -0 -0 -0 -0 -0 -0 -0 -0 -0 -0 -0 -0 -0 -0 -0 -0 -0 -0 -0 -0 -0 -0 -0 -0 -0 -0 -0 -0 -0 -2 -0 -0 -6 -0 -0 -0
-0 -0 -0 -0 -0 -0 -0 -0 -0 -0 -0 -0 -0 -0 -0 -0 -0 -0 -0 -0 -0 -0 -0 -0 -0 -0 -0 -3 -0 -0 -0 -0 -0 -0 -0 -0 -0 -0 -0 -2 -0 -0 -1
-0 -0 -0 -0 -0 -0 -0 -0 -0 -0 -0 -0 -0 -0 -0 -0 -0 -1 -0 -0 -0 -0 -0 -0 -0 -7 -0 -0 -0 -0 -0 -0 -0 -0 -0 -0 -0 -102 -9 -4 -0 -0 -0
-0 -0 -0 -0 -0 -0 -0 -0 -0 -0 -0 -0 -0 -0 -0 -0 -0 -0 -0 -0 -0 -0 -0 -1 -1 -1 -0 -0 -0 -0 -0 -0 -0 -0 -0 -0 -0 -0 -0 -0 -4 -0 -0
-0 -0 -0 -0 -0 -0 -0 -0 -0 -0 -0 -0 -0 -0 -0 -0 -0 -0 -0 -0 -0 -0 -0 -1 -0 -2 -4 -1 -0 -0 -0 -0 -0 -0 -0 -0 -0 -1 -0 -0 -4 -0 -0
-0 -0 -1 -0 -0 -0 -0 -0 -0 -0 -0 -0 -0 -0 -0 -0 -0 -0 -0 -2 -0 -0 -0 -0 -0 -0 -1 -0 -0 -0 -23 -0 -0 -0 -1 -0 -0 -0 -0 -0 -0 -0 -0
-0 -0 -0 -0 -0 -0 -0 -0 -0 -0 -0 -0 -0 -0 -0 -0 -0 -0 -0 -11 -0 -0 -0 -0 -0 -0 -1 -0 -0 -0 -4 -18 -17 -0 -0 -0 -0 -0 -0 -0 -0 -0 -0
-0 -0 -0 -0 -0 -0 -0 -0 -0 -0 -0 -0 -0 -0 -0 -0 -0 -0 -0 -2 -0 -0 -0 -0 -2 -0 -0 -0 -0 -0 -0 -0 -0 -0 -0 -0 -0 -0 -0 -0 -0 -0 -0
-0 -0 -0 -0 -0 -0 -0 -0 -0 -0 -0 -0 -0 -0 -0 -0 -0 -0 -0 -1 -0 -0 -0 -0 -1 -14 -0 -0 -0 -0 -0 -0 -2 -18 -0 -0 -0 -0 -0 -5 -0 -0 -0
-0 -0 -0 -0 -0 -0 -0 -0 -0 -0 -0 -0 -0 -0 -0 -0 -0 -0 -0 -0 -0 -0 -0 -20 -0 -0 -0 -0 -0 -0 -0 -0 -0 -0 -0 -0 -4 -2 -14 -8 -0 -0 -0
-0 -0 -0 -0 -0 -0 -0 -0 -0 -0 -0 -0 -0 -1 -0 -0 -2 -0 -0 -0 -0 -0 -0 -0 -0 -0 -0 -0 -0 -15 -0 -5 -3 -0 -0 -0 -0 -0 -0 -6 -1 -0 -0
-0 -0 -0 -0 -0 -0 -0 -0 -0 -0 -0 -0 -1 -2 -0 -1 -42 -0 -0 -0 -3 -6 -0 -0 -1 -0 -0 -0 -0 -16 -0 -1 -0 -0 -0 -0 -0 -0 -0 -0 -0 -0 -0
-0 -0 -0 -0 -0 -0 -0 -0 -0 -0 -0 -0 -0 -0 -0 -1 -1 -0 -0 -0 -0 -27 -0 -5 -0 -0 -32 -15 -21 -24 -54 -0 -0 -0 -0 -0 -0 -0 -0 -0 -0 -0 -1
-0 -0 -0 -0 -0 -0 -0 -0 -0 -0 -0 -0 -0 -0 -0 -0 -0 -0 -2 -6 -25 -49 -12 -1 -3 -7 -0 -4 -10 -2 -0 -0 -0 -0 -0 -0 -0 -0 -0 -1 -0 -0 -0
-0 -0 -0 -0 -1 -0 -0 -0 -0 -0 -0 -0 -0 -0 -0 -0 -2 -0 -0 -9 -8 -5 -0 -4 -2 -1 -0 -0 -0 -0 -0 -2 -0 -0 -0 -0 -0 -0 -0 -0 -0 -0 -0
-0 -0 -1 -0 -0 -0 -0 -0 -0 -0 -0 -0 -0 -0 -0 -0 -0 -0 -0 -0 -0 -0 -28 -0 -0 -0 -0 -0 -0 -0 -0 -0 -0 -0 -0 -0 -0 -0 -0 -0 -0 -0 -0
-0 -0 -0 -0 -0 -0 -0 -0 -0 -7 -0 -0 -0 -0 -0 -0 -0 -0 -0 -0 -0 -0 -0 -0 -0 -0 -0 -0 -0 -0 -0 -0 -0 -0 -0 -0 -0 -0 -0 -0 -0 -0 -0
-0 -0 -0 -0 -0 -0 -0 -0 -0 -0 -0 -0 -2 -0 -0 -0 -0 -0 -0 -0 -0 -4 -0 -0 -0 -0 -0 -0 -0 -0 -0 -0 -0 -0 -0 -0 -0 -0 -0 -0 -0 -0 -0
-0 -0 -0 -0 -0 -0 -1 -0 -0 -0 -0 -0 -0 -0 -0 -0 -0 -0 -0 -0 -0 -0 -0 -0 -0 -0 -0 -0 -0 -0 -0 -0 -0 -0 -0 -0 -0 -0 -0 -0 -0 -0 -0
-0 -0 -0 -0 -0 -0 -0 -0 -0 -0 -0 -0 -0 -3 -0 -0 -2 -14 -0 -0 -0 -0 -0 -0 -0 -0 -0 -0 -0 -0 -0 -0 -0 -0 -0 -0 -0 -0 -0 -0 -0 -0 -0
-0 -0 -3 -0 -0 -0 -0 -0 -0 -0 -0 -0 -0 -0 -0 -0 -0 -0 -0 -0 -0 -0 -0 -0 -0 -0 -0 -0 -0 -0 -0 -0 -0 -0 -0 -0 -0 -0 -0 -0 -0 -0 -0
-0 -0 -0 -0 -0 -0 -0 -0 -0 -0 -0 -0 -0 -0 -0 -0 -0 -0 -0 -6 -2 -0 -0 -0 -0 -0 -0 -0 -0 -0 -0 -0 -0 -0 -0 -0 -0 -0 -0 -0 -0 -0 -0
-0 -0 -0 -0 -0 -2 -2 -0 -0 -0 -0 -0 -0 -0 -0 -0 -0 -0 -14 -8 -0 -6 -0 -0 -0 -0 -0 -0 -0 -0 -0 -0 -0 -0 -0 -0 -0 -0 -0 -0 -0 -0 -2
-0 -0 -0 -0 -0 -0 -0 -0 -0 -0 -0 -0 -0 -0 -0 -0 -0 -0 -0 -0 -0 -8 -0 -0 -0 -0 -0 -0 -0 -0 -0 -0 -0 -0 -0 -0 -0 -0 -17 -2 -2 -0 -0
-0 -0 -0 -0 -0 -0 -0 -0 -0 -0 -0 -0 -0 -0 -0 -0 -0 -0 -0 -0 -2 -0 -0 -0 -0 -0 -0 -0 -0 -0 -0 -0 -0 -0 -0 -0 -0 -4 -2 -0 -0 -0 -0
-0 -0 -0 -0 -0 -0 -0 -0 -0 -0 -0 -0 -0 -0 -0 -0 -0 -1 -0 -0 -0 -0 -0 -0 -0 -0 -0 -0 -0 -0 -0 -0 -0 -0 -0 -0 -1 -1 -7 -2 -0 -3 -2
Wind_Speed
8 6 4 3 1 5 6 7 7 7 8 8 8 8 8 7 8 7 6 7 7 7 7 9 9 8 9 10 9 9 8 11 11 11 12 10 9 9 7 7 11 10 8
8 4 5 2 5 5 5 5 5 6 8 8 7 7 7 7 4 7 8 8 9 8 10 10 10 9 10 10 11 11 10 10 8 13 9 12 9 15 5 9 7 12 6
7 5 2 4 3 3 3 3 4 5 7 8 7 7 8 10 12 12 11 10 10 10 10 11 11 9 10 11 12 11 11 9 11 10 11 11 9 5 9 11 7 10 6
6 4 3 3 3 4 4 4 4 5 6 7 6 6 6 9 10 11 11 10 9 10 11 10 8 9 11 12 12 13 12 13 12 11 11 10 8 7 6 8 8 11 9
6 4 2 0 0 3 5 5 4 4 5 6 6 6 6 9 8 9 9 8 9 9 10 11 12 11 10 14 11 13 13 12 12 11 11 12 11 10 9 8 7 9 10
5 5 1 3 2 3 3 5 5 4 4 5 5 5 6 8 7 8 9 12 9 6 8 10 11 14 14 17 17 21 20 12 13 11 9 13 13 11 10 9 10 9 11
6 6 4 2 4 3 4 4 4 4 4 4 4 5 5 7 7 10 13 10 8 8 8 7 10 10 13 15 18 20 17 14 6 9 12 12 13 12 13 13 13 12 11
6 5 3 2 4 3 3 3 3 3 3 3 2 3 5 6 5 9 16 10 7 10 7 6 8 10 11 12 16 16 15 16 15 12 13 13 13 13 13 11 13 12 10
8 5 2 2 1 2 3 2 2 2 2 2 1 3 4 4 4 6 11 14 10 12 10 6 6 8 6 6 13 16 16 15 14 12 14 16 11 8 7 6 8 8 9
7 5 5 4 3 4 2 2 1 4 3 5 3 2 0 6 6 1 5 9 10 10 11 7 6 6 6 9 11 14 17 16 16 16 14 8 6 10 5 5 4 7 8
6 6 5 5 3 2 2 2 3 4 4 4 5 6 8 7 5 10 6 6 7 9 11 9 9 6 8 11 14 13 13 14 15 11 13 10 11 9 9 5 9 6 7
7 6 6 5 5 2 3 5 5 5 8 10 9 10 4 6 13 13 12 11 5 7 11 9 11 11 15 13 11 17 18 13 9 11 11 11 8 9 9 10 10 9 8
7 7 5 4 5 4 5 6 8 9 9 8 7 7 6 6 7 12 11 11 12 10 6 10 14 11 14 12 9 14 9 10 12 11 9 9 8 7 9 9 8 10 9
8 6 5 5 4 4 7 7 6 7 7 7 8 9 10 10 8 5 5 5 9 8 7 13 12 15 10 8 10 13 8 11 11 9 9 8 8 7 7 7 7 7 8
7 5 4 6 7 6 8 5 5 5 4 7 8 9 9 10 8 5 5 8 8 9 11 11 6 7 7 10 10 12 8 12 8 8 7 7 6 7 7 7 6 6 6
6 6 5 4 4 5 4 6 10 10 9 12 14 10 8 6 8 3 1 7 8 7 9 9 14 9 8 11 11 10 9 12 7 7 6 6 7 7 7 7 6 5 7
6 5 3 3 7 5 5 6 7 5 15 14 16 10 9 14 12 8 7 8 7 2 9 9 11 10 9 11 9 9 10 10 9 7 8 7 7 6 7 7 6 7 7
6 2 6 7 5 6 5 7 7 7 7 8 7 10 9 13 11 7 8 6 8 5 4 9 10 9 8 10 10 10 9 9 7 7 7 7 7 6 6 6 7 7 8
6 6 6 6 6 5 7 9 7 7 8 8 7 6 9 12 8 9 5 5 7 10 10 9 9 7 10 11 11 10 11 9 7 7 7 7 8 7 6 6 6 7 7
6 4 4 7 8 8 5 6 7 8 8 8 8 10 10 10 7 4 2 7 11 9 9 12 10 10 12 12 12 11 10 10 8 7 7 7 7 7 6 7 6 5 5
5 6 8 7 9 5 5 7 8 8 9 9 7 7 5 8 8 10 10 11 9 10 10 9 10 10 11 11 13 11 10 9 8 7 7 7 7 7 7 6 6 6 5
7 4 6 9 5 4 7 7 8 9 10 9 8 4 2 7 10 10 11 10 8 10 9 10 10 11 11 12 12 9 9 8 8 7 7 7 7 7 6 6 6 6 6
5 5 6 5 3 1 3 8 9 8 8 7 8 8 9 9 8 9 8 7 9 9 10 8 9 11 12 11 9 8 7 7 7 7 8 8 8 7 8 7 7 7 6
6 4 4 4 6 7 8 7 7 4 6 8 7 8 8 7 7 10 9 9 8 8 8 7 8 15 14 11 8 9 7 7 7 7 10 7 8 10 8 8 6 7 7
5 2 2 4 7 8 6 6 6 6 7 7 7 7 8 7 11 10 8 11 8 9 9 9 10 15 15 14 14 15 13 12 10 9 8 10 12 10 9 8 8 7 8
4 3 5 7 6 5 6 5 7 7 7 7 7 7 7 8 7 6 6 7 9 8 11 10 14 18 18 12 15 16 14 13 12 12 9 10 6 10 7 6 10 6 7
Wind_Direction
79 83 99 64 267 44 32 30 25 26 16 12 11 10 15 24 27 17 1 28 17 5 11 1 4 358 355 350 342 357 356 341 342 331 328 335 8 304 321 308 293 293 303
83 104 86 173 60 60 40 38 26 25 25 17 12 11 3 14 8 15 1 359 1 0 7 355 355 1 359 4 341 355 331 330 308 308 315 311 345 311 284 284 333 314 338
112 132 224 86 71 43 25 23 19 9 30 22 6 14 17 16 12 1 2 357 360 5 3 346 12 21 13 354 338 338 328 336 317 308 309 285 287 51 326 292 306 312 300
137 127 132 70 32 4 345 341 345 350 32 18 5 18 12 36 20 360 354 348 0 359 7 358 10 14 6 356 340 328 333 318 306 304 307 310 301 308 303 326 335 311 322
148 167 127 92 172 20 359 340 330 326 22 12 10 32 8 54 24 351 336 337 4 16 4 1 7 51 39 13 343 334 315 319 314 313 315 314 330 352 327 332 309 300 316
154 170 90 251 293 8 346 339 332 341 20 11 17 28 22 56 9 333 333 321 22 9 3 1 349 22 356 358 341 324 305 302 315 315 315 321 324 323 329 317 306 312 310
172 166 186 284 298 306 305 336 358 342 11 8 3 8 27 48 7 343 332 318 336 356 5 354 353 4 14 352 339 318 328 315 293 306 302 322 321 328 328 319 316 318 321
207 149 197 267 281 255 319 357 338 2 357 8 352 2 358 86 37 350 330 326 351 348 336 351 356 356 21 349 333 336 331 341 336 337 329 313 307 326 321 315 311 302 304
195 154 154 163 184 89 66 42 357 340 336 282 340 345 13 4 92 5 337 318 14 338 341 350 7 15 353 325 325 335 332 340 333 318 294 282 281 298 301 311 307 316 314
165 149 152 146 138 113 91 70 2 301 87 320 337 336 212 296 159 149 330 325 344 342 324 98 128 27 341 302 312 319 319 337 333 322 317 313 312 357 268 257 287 316 318
141 167 165 168 179 177 233 263 301 302 337 297 290 271 250 242 220 192 204 294 333 327 319 322 350 16 312 305 309 306 302 314 317 321 337 340 340 333 333 343 330 316 302
184 182 177 196 254 160 259 282 278 267 257 253 242 258 245 225 214 190 200 226 272 288 309 320 341 333 309 290 296 293 299 296 353 341 339 338 338 329 323 317 309 295 274
189 200 209 216 249 248 262 277 273 235 246 280 303 310 314 319 315 176 205 222 238 253 307 302 287 287 282 292 296 310 287 4 355 345 338 333 331 319 308 299 298 293 298
194 205 215 227 253 280 293 278 288 310 321 316 332 335 337 334 353 24 314 267 255 275 306 324 339 321 301 330 2 333 358 22 356 348 332 325 321 315 308 302 310 326 313
202 210 225 225 201 263 244 278 296 310 323 316 313 324 317 323 354 1 332 312 329 339 323 305 315 312 334 356 335 338 10 18 359 334 320 317 313 316 316 325 313 315 295
194 210 235 288 267 252 280 289 213 242 220 219 237 240 275 308 41 56 308 299 297 300 306 339 317 2 358 354 330 333 23 18 343 326 318 315 319 320 317 313 301 298 311
253 320 265 245 262 280 303 294 316 233 233 239 240 230 219 286 303 323 310 314 277 254 287 334 352 3 350 328 334 342 26 5 332 325 321 317 319 307 317 319 324 331 326
227 74 280 284 296 287 310 320 296 301 316 325 230 224 211 238 258 270 274 294 325 253 332 0 1 353 337 336 330 6 20 346 332 321 316 319 314 307 308 321 325 336 336
223 245 227 248 282 326 280 279 302 326 333 329 7 141 197 238 196 229 234 330 317 17 16 10 359 345 335 332 353 12 17 332 318 318 316 315 318 318 318 317 310 325 322
229 261 281 306 293 282 308 316 328 336 336 0 11 32 5 330 345 118 307 25 19 10 351 3 343 351 334 354 3 10 353 331 328 324 320 319 317 313 309 323 329 320 313
244 184 213 249 261 311 325 348 334 345 0 357 24 70 5 314 338 27 24 24 7 7 6 334 4 350 342 7 1 6 332 326 326 324 322 317 313 310 305 306 306 302 306
248 263 212 244 305 339 12 312 357 15 351 358 1 41 262 342 42 19 24 24 350 3 359 18 346 346 13 4 5 334 326 322 325 325 317 312 311 307 301 310 312 313 294
265 259 264 275 0 36 301 1 20 16 345 4 6 3 23 8 25 50 43 346 22 9 357 4 338 8 8 13 344 337 321 320 318 311 304 308 310 308 303 306 307 309 318
246 258 289 344 49 324 44 1 18 35 6 15 14 9 34 12 359 57 37 357 30 8 337 354 13 12 18 357 344 341 333 326 309 293 299 295 296 294 295 312 335 10 25
275 63 11 35 26 23 19 23 16 21 22 21 17 16 24 33 18 31 17 347 23 344 353 355 25 24 14 355 354 345 333 317 307 297 293 286 282 292 4 20 22 32 23
146 90 48 44 37 30 31 21 36 19 26 30 18 27 21 46 62 34 28 3 342 353 3 12 22 30 12 1 349 335 333 325 318 303 299 287 345 16 356 4 36 37 28